This demonstration page uses our WeatherBlox Daily Observations layout. Learn more.

Left ArrowRight Arrow

Hourly Observations for August 14, 2020

Temp ( °F °C ) Dew Point ( °F °C ) Humidity (%) Winds ( mph kmh ) Pressure ( in mb ) Visibility ( mi km ) Precip ( " mm )
12:51 am 00:51 Clear 89 31.7 48 8.9 24 24 NNW 6 9 29.75 1008 10 16.0934 0 0
1:51 am 01:51 Clear 86 30 48 8.9 27 27 NW 6 9 29.75 1007 10 16.0934 0 0
2:51 am 02:51 Clear 86 30 48 8.9 27 27 Calm 29.75 1008 10 16.0934 0 0
3:51 am 03:51 Clear 84 28.9 50 10 31 31 SW 3 6 29.75 1008 10 16.0934 0 0
4:51 am 04:51 Clear 82 27.8 49 9.4 32 32 NNE 5 7 29.76 1008 10 16.0934 0 0
5:51 am 05:51 Sunny 79 26.1 49 9.4 35 35 SSE 6 9 29.79 1009 10 16.0934 0 0
6:51 am 06:51 Sunny 83 28.3 50 10 32 32 Calm 29.81 1009 10 16.0934 0 0
7:51 am 07:51 Sunny 87 30.6 51 10.6 29 29 Calm 29.82 1010 10 16.0934 0 0
8:51 am 08:51 Sunny 90 32.2 53 11.7 28 28 S 3 6 29.81 1010 10 16.0934 0 0
9:51 am 09:51 Sunny 94 34.4 53 11.7 25 25 SSW 3 6 29.81 1010 10 16.0934 0 0
10:51 am 10:51 Sunny 101 38.3 50 10 18 18 NW 5 7 29.8 1009 10 16.0934 0 0
11:51 am 11:51 Sunny 104 40 47 8.3 15 15 SSW 8 13 29.77 1008 10 16.0934 0 0
12:51 pm 12:51 Sunny 106 41.1 46 7.8 13 13 WSW 9 15 29.74 1007 10 16.0934 0 0
1:51 pm 13:51 Sunny 108 42.2 44 6.7 12 12 WNW 12 19 29.71 1006 10 16.0934 0 0
2:51 pm 14:51 Sunny 108 42.2 44 6.7 12 12 W 14 22 29.68 1005 10 16.0934 0 0
3:51 pm 15:51 Sunny 111 43.9 42 5.6 10 10 VRB 7 11 29.65 1004 10 16.0934 0 0
4:32 pm 16:32 Sunny 111 43.9 40 4.4 9 9 NW 13 20 29.48 998 10 16.0934 0 0
4:51 pm 16:51 Sunny 110 43.3 39 3.9 9 9 W 12 19 29.64 1004 10 16.0934 0 0
5:51 pm 17:51 Sunny 109 42.8 38 3.3 9 9 W 10 17 29.65 1004 10 16.0934 0 0
6:51 pm 18:51 Sunny 105 40.6 38 3.3 10 10 Calm 29.66 1004 10 16.0934 0 0
7:51 pm 19:51 Clear 102 38.9 43 6.1 13 13 VRB 3 6 29.68 1005 10 16.0934 0 0
8:51 pm 20:51 Clear 98 36.7 47 8.3 17 17 undefined N/A 29.72 1006 10 16.0934 0 0
9:51 pm 21:51 Clear 95 35 48 8.9 20 20 E 7 11 29.73 1007 10 16.0934 0 0
10:51 pm 22:51 Clear 94 34.4 48 8.9 21 21 ESE 9 15 29.73 1007 10 16.0934 0 0
11:51 pm 23:51 Clear 89 31.7 48 8.9 24 24 NE 7 11 29.73 1007 10 16.0934 0 0

Powered by AerisWeather